Avalon, CA

4:43 PM PDT on April 23, 2017 (GMT -0700)
Catalina

Weather History for KAVX - July, 2013

Change the Weather History Date:

Thursday, July 25, 2013

  Actual Average Record
Temperature  
Mean Temperature 62 °F -  
Max Temperature 72 °F 73 °F 87 °F (2006)
Min Temperature 55 °F 56 °F 53 °F (2010)
Degree Days  
Heating Degree Days 2    
Growing Degree Days 12 (Base 50)    
Moisture  
Dew Point 54 °F    
Average Humidity 85    
Maximum Humidity 97    
Minimum Humidity 57    
Precipitation  
Precipitation 0.00 in - - ()
Sea Level Pressure  
Sea Level Pressure 29.98 in    
Wind  
Wind Speed 2 mph (WSW)    
Max Wind Speed 13 mph    
Max Gust Speed -    
Visibility 4 miles    
Events Fog    
Averages and records for this station are not official NWS values.
T = Trace of Precipitation, MM = Missing Value Source: NWS Daily Summary

Daily Weather History Graph

Daily Weather History Graph

Search for Another Location

Airport or City:

Trip Planner

Search our weather history database for the weather conditions in past years. The results will help you decide how hot, cold, wet, or windy it might be!

Date:

Astronomy

Jul. 25, 2013 Rise Set
Actual Time 6:01 AM PDT 7:58 PM PDT
Civil Twilight 5:34 AM PDT 8:25 PM PDT
Nautical Twilight 5:00 AM PDT 8:59 PM PDT
Astronomical Twilight 4:24 AM PDT 9:34 PM PDT
Moon 9:57 PM PDT (7/25) 9:22 AM PDT (7/25)
Length of Visible Light 14h 51m
Length of Day
13h 56m
Waning Gibbous, 87% of the Moon is Illuminated
Jul 25
Waning Gibbous
Jul 29
Last Quarter
Aug 6
New
Aug 14
First Quarter
Aug 20
Full

Hourly Weather History & Observations

Time (PDT) Temp. Dew Point Humidity Pressure Visibility Wind Dir Wind Speed Gust Speed Precip Events Conditions
12:51 AM 60.1 °F 51.1 °F 72% 29.93 in 5.0 mi Calm Calm - N/A   Haze
12:53 AM 57.2 °F 51.8 °F 82% 29.98 in 1.0 mi Calm Calm - N/A   Haze
1:00 AM 55.4 °F 51.8 °F 88% 29.98 in 0.8 mi Calm Calm - N/A   Mist
1:03 AM 55.4 °F 51.8 °F 88% 29.98 in 1.8 mi Calm Calm - N/A   Clear
1:10 AM 59.0 °F 51.8 °F 77% 29.98 in 10.0 mi West 4.6 mph - N/A   Clear
1:36 AM 57.2 °F 51.8 °F 82% 29.98 in 1.0 mi Calm Calm - N/A   Haze
1:43 AM 55.4 °F 53.6 °F 94% 29.97 in 0.5 mi WSW 3.5 mph - N/A Fog Fog
1:46 AM 55.4 °F 53.6 °F 94% 29.97 in 1.5 mi Calm Calm - N/A   Partly Cloudy
1:51 AM 55.0 °F 53.1 °F 93% 29.94 in 9.0 mi SW 4.6 mph - N/A   Partly Cloudy
1:55 AM 55.4 °F 53.6 °F 94% 29.97 in 1.0 mi SW 6.9 mph - N/A   Mist
2:02 AM 55.4 °F 53.6 °F 94% 29.97 in 0.2 mi SW 6.9 mph - N/A Fog Fog
2:51 AM 55.9 °F 53.1 °F 90% 29.93 in 0.2 mi West 3.5 mph - N/A Fog Fog
3:12 AM 55.4 °F 53.6 °F 94% 29.96 in 2.0 mi Calm Calm - N/A   Scattered Clouds
3:14 AM 55.4 °F 53.6 °F 94% 29.96 in 1.0 mi Calm Calm - N/A   Mist
3:21 AM 55.4 °F 53.6 °F 94% 29.96 in 0.2 mi Calm Calm - N/A Fog Fog
3:35 AM 55.4 °F 53.6 °F 94% 29.96 in 1.5 mi Calm Calm - N/A   Scattered Clouds
3:37 AM 55.4 °F 53.6 °F 94% 29.96 in 3.0 mi Calm Calm - N/A   Scattered Clouds
3:51 AM 57.0 °F 48.9 °F 74% 29.92 in 10.0 mi NNE 3.5 mph - N/A   Partly Cloudy
4:27 AM 55.4 °F 51.8 °F 88% 29.96 in 1.8 mi Calm Calm - N/A   Clear
4:44 AM 55.4 °F 53.6 °F 94% 29.96 in 0.2 mi Calm Calm - N/A Fog Fog
4:51 AM 55.0 °F 53.1 °F 93% 29.92 in 0.2 mi Calm Calm - N/A Fog Fog
4:59 AM 55.4 °F 53.6 °F 94% 29.96 in 3.0 mi Calm Calm - N/A   Scattered Clouds
5:22 AM 55.4 °F 53.6 °F 94% 29.97 in 1.8 mi South 3.5 mph - N/A   Partly Cloudy
5:32 AM 55.4 °F 53.6 °F 94% 29.96 in 3.0 mi Calm Calm - N/A   Clear
5:38 AM 55.4 °F 53.6 °F 94% 29.96 in 2.5 mi Calm Calm - N/A   Partly Cloudy
5:51 AM 55.9 °F 54.0 °F 93% 29.93 in 2.5 mi Calm Calm - N/A   Partly Cloudy
6:00 AM 55.4 °F 53.6 °F 94% 29.97 in 1.0 mi Calm Calm - N/A   Mist
6:09 AM 55.4 °F 53.6 °F 94% 29.97 in 0.5 mi Calm Calm - N/A Fog Fog
6:15 AM 55.4 °F 53.6 °F 94% 29.97 in 1.2 mi Calm Calm - N/A   Partly Cloudy
6:24 AM 55.4 °F 53.6 °F 94% 29.98 in 0.2 mi Calm Calm - N/A Fog Fog
6:51 AM 55.9 °F 55.0 °F 97% 29.96 in 0.2 mi ESE 4.6 mph - N/A Fog Fog
7:51 AM 59.0 °F 57.9 °F 96% 29.96 in 0.2 mi Calm Calm - N/A Fog Fog
8:32 AM 59.0 °F 57.2 °F 94% 30.00 in 1.2 mi Calm Calm - N/A   Overcast
8:36 AM 60.8 °F 57.2 °F 88% 30.00 in 3.0 mi Calm Calm - N/A   Mostly Cloudy
8:51 AM 60.1 °F 57.9 °F 93% 29.97 in 10.0 mi Calm Calm - N/A   Scattered Clouds
9:51 AM 66.0 °F 57.9 °F 75% 29.96 in 10.0 mi Calm Calm - N/A   Clear
10:51 AM 68.0 °F 57.0 °F 68% 29.96 in 10.0 mi West 4.6 mph - N/A   Clear
11:51 AM 70.0 °F 57.9 °F 65% 29.97 in 10.0 mi Calm Calm - N/A   Clear
12:51 PM 70.0 °F 57.0 °F 63% 29.98 in 10.0 mi WSW 5.8 mph - N/A   Clear
1:51 PM 68.0 °F 55.9 °F 65% 29.99 in 10.0 mi West 8.1 mph - N/A   Clear
2:51 PM 66.0 °F 57.0 °F 73% 29.99 in 10.0 mi WSW 11.5 mph - N/A   Clear
3:51 PM 68.0 °F 57.0 °F 68% 29.98 in 10.0 mi Variable 3.5 mph - N/A   Clear
4:51 PM 64.0 °F 55.9 °F 75% 29.96 in 10.0 mi WSW 11.5 mph - N/A   Clear
5:22 PM 60.8 °F 55.4 °F 82% 29.99 in 5.0 mi WSW 12.7 mph - N/A   Haze
5:29 PM 60.8 °F 55.4 °F 82% 29.99 in 1.0 mi WSW 12.7 mph - N/A   Mist
5:37 PM 60.8 °F 55.4 °F 82% 29.99 in 0.5 mi WSW 10.4 mph - N/A Fog Fog
5:46 PM 60.8 °F 55.4 °F 82% 30.00 in 1.2 mi Variable 4.6 mph - N/A   Haze
5:49 PM 60.8 °F 55.4 °F 82% 30.00 in 3.0 mi SW 5.8 mph - N/A   Haze
5:51 PM 61.0 °F 55.9 °F 83% 29.97 in 3.0 mi SW 6.9 mph - N/A   Haze
5:56 PM 60.8 °F 55.4 °F 82% 29.99 in 1.2 mi SW 8.1 mph - N/A   Mostly Cloudy
5:59 PM 60.8 °F 55.4 °F 82% 29.99 in 0.8 mi WSW 10.4 mph - N/A   Mist
6:51 PM 57.9 °F 55.9 °F 93% 29.98 in 0.2 mi WSW 10.4 mph - N/A Fog Fog
7:40 PM 57.2 °F 55.4 °F 94% 30.02 in 2.5 mi West 4.6 mph - N/A   Mostly Cloudy
7:43 PM 57.2 °F 55.4 °F 94% 30.02 in 7.0 mi West 3.5 mph - N/A   Scattered Clouds
7:51 PM 57.9 °F 55.0 °F 90% 29.99 in 10.0 mi West 4.6 mph - N/A   Partly Cloudy
8:51 PM 63.0 °F 54.0 °F 72% 29.99 in 10.0 mi Variable 3.5 mph - N/A   Clear
8:54 PM 59.0 °F 53.6 °F 82% 30.04 in 1.0 mi Calm Calm - N/A   Haze
9:01 PM 59.0 °F 53.6 °F 82% 30.04 in 0.5 mi West 6.9 mph - N/A   Haze
9:10 PM 57.2 °F 53.6 °F 88% 30.04 in 1.0 mi West 6.9 mph - N/A   Mist
9:17 PM 62.6 °F 53.6 °F 72% 30.04 in 2.5 mi West 4.6 mph - N/A   Haze
9:24 PM 62.6 °F 53.6 °F 72% 30.04 in 10.0 mi WSW 3.5 mph - N/A   Clear
9:51 PM 61.0 °F 54.0 °F 78% 30.01 in 10.0 mi Calm Calm - N/A   Clear
10:51 PM 69.1 °F 53.1 °F 57% 29.99 in 10.0 mi NW 4.6 mph - N/A   Clear
11:51 PM 60.1 °F 55.0 °F 83% 30.00 in 10.0 mi Calm Calm - N/A   Clear